Regional Weather Roundup
Issued by NWS

Home | Current Version | Previous Version | Graphics & Text | Print | Product List | Glossary Off
Versions: 1 2 3 4 5 6 7 8 9 10 11 12 13 14 15 16 17 18 19 20 21 22 23 24 25 26 27 28 29 30 31 32 33 34 35 36 37 38 39 40 41 42 43 44 45 46 47 48 49 50

000
ASUS43 KDMX 250201
RWRIA

WEATHER ROUNDUP FOR IOWA
NATIONAL WEATHER SERVICE DES MOINES IA
800 PM CST SAT FEB 24 2018

NOTE: "FAIR" INDICATES FEW OR NO CLOUDS BELOW 12,000 FEET WITH NO
SIGNIFICANT WEATHER AND/OR OBSTRUCTIONS TO VISIBILITY.

* - THESE STATIONS ARE NOT NWS STATIONS...THUS NOT UNDER NWS
QUALITY CONTROL.  THEY ALSO DO NOT REPORT WEATHER SUCH
AS PRECIPITATION OR FOG.

IAZ001>003-012>014-020>022-031>034-043>046-250300-
   NORTHWEST IOWA

CITY           SKY/WX    TMP DP  RH WIND       PRES   REMARKS
CARROLL *      CLOUDY    27  25  93 W17G23    29.68R WCI  14
CHEROKEE *     LGT SNOW  23  22  94 W8        29.67S WCI  14
DENISON *      MIX PCPN  27  25  93 SW13      29.70S WCI  16
LE MARS *      CLOUDY    23  21  93 SW6       29.67S WCI  16
ORANGE CITY *  CLOUDY    21  21 100 W7        29.65S WCI  13
SHELDON *      CLOUDY    19  19 100 W10       29.63S WCI   8
SIOUX CITY     CLOUDY    25  22  88 W3        29.69S
SPENCER        CLOUDY    22  18  85 W16       29.63F WCI   8
STORM LAKE *   FLURRIES  23  21  93 W13       29.65R WCI  11
$$

IAZ055>058-069>071-079>083-090>094-250300-
   SOUTHWEST IOWA

CITY           SKY/WX    TMP DP  RH WIND       PRES   REMARKS
ATLANTIC *     CLOUDY    28  28 100 W13G18    29.73R WCI  18
AUDUBON *      CLOUDY    27  25  93 W12       29.70R WCI  16
CLARINDA *     CLOUDY    30  30 100 W12G22    29.79S WCI  21
COUNCIL BLFS * CLEAR     27  28 100 SW8       29.73S WCI  18
CRESTON *      CLOUDY    30  28  93 W20G26    29.72R WCI  18
LAMONI         CLOUDY    32  28  85 W20       29.72R WCI  20
RED OAK *      CLOUDY    30  28  93 W9G18     29.76R WCI  22
SHENANDOAH *   MOCLDY    30  28  93 SW9       29.78S WCI  22
$$

IAZ047>049-059>061-072>074-084-250300-
   CENTRAL IOWA

CITY           SKY/WX    TMP DP  RH WIND       PRES   REMARKS
AMES           CLOUDY    31  28  89 W18       29.65R WCI  19
ANKENY *       CLOUDY    32  30  93 MISG      29.68R
BOONE *        CLOUDY    30  28  93 W16G26    29.63S WCI  19
CHARITON *     CLOUDY    32  32 100 W17G25    29.68R WCI  21
DES MOINES     CLOUDY    33  29  85 W20G29    29.67R WCI  21
GRINNELL*      CLOUDY    32  32  99 W14       29.62S WCI  22
KNOXVILLE *    CLOUDY    34  34 100 W16G23    29.65R WCI  23
MARSHALLTOWN   CLOUDY    32  32 100 W17       29.60R WCI  21
NEWTON *       CLOUDY    32  32 100 W14       29.64R WCI  22
PELLA *        CLOUDY    33  33  99 W17       29.65R WCI  22
PERRY *        CLOUDY    31  29  94 W14       29.68R WCI  20
$$

IAZ004>006-015-016-023>025-035-036-250300-
   NORTH CENTRAL IOWA

CITY           SKY/WX    TMP DP  RH WIND       PRES   REMARKS
CLARION *      CLOUDY    28  28 100 W25       29.61S FOG     WCI  14
ESTHERVILLE    LGT SNOW  21  18  88 W18       29.59F FOG     WCI   6
FORT DODGE *   CLOUDY    26  23  88 W17G25    29.63S WCI  13
MASON CITY     LGT SNOW  31  30  96 SW20G26   29.56F FOG     WCI  19
FOREST CITY *  LGT SNOW  30  30 100 W9        29.57R WCI  22
WEBSTER CITY * CLOUDY    28  27  93 W24G30    29.61R FOG     WCI  14
IOWA FALLS *   FLURRIES  32  32 100 W20       29.60S WCI  20
$$

IAZ007>011-017>019-026>030-037>042-050>054-066-250300-
   NORTHEAST IOWA

CITY           SKY/WX    TMP DP  RH WIND       PRES   REMARKS
CEDAR RAPIDS   LGT RAIN  37  30  75 W9        29.57F WCI  30
CHARLES CITY * LGT SNOW  32  32 100 SW7       29.55F WCI  26
CLINTON *      LGT RAIN  41  41 100 SE12      29.55F FOG
DECORAH *      LGT SNOW  34  34 100 S8        29.52F WCI  27
DUBUQUE        RAIN      36  35  96 SE9       29.51F FOG     WCI  29
MONTICELLO *   LGT RAIN  37  37 100 SE7       29.54S WCI  32
OELWEIN *      LGT SNOW  34  34 100 SW13      29.56F WCI  25
WATERLOO       LGT SNOW  32  32 100 SW7       29.57F FOG     WCI  26
$$

IAZ064-065-067-068-078-250300-
   EAST CENTRAL IOWA

CITY           SKY/WX    TMP DP  RH WIND       PRES   REMARKS
DAVENPORT      LGT RAIN  43  41  93 SE9       29.55F FOG
IOWA CITY      LGT RAIN  39  37  92 W12       29.61R FOG     WCI  32
MT. PLEASANT * DRIZZLE   37  37 100 W14G22    29.61R WCI  29
MUSCATINE *    LGT RAIN  41  41 100 W9        29.59R
QUAD CITIES    LGT RAIN  43  43 100 E8        29.53F FOG
$$

IAZ062-063-075>077-085>089-095>099-250300-
   SOUTHEAST IOWA

CITY           SKY/WX    TMP DP  RH WIND       PRES   REMARKS
BURLINGTON     RAIN      43  43 100 W16       29.58R VSB 1/2
FAIRFIELD *    CLOUDY    37  37 100 W15       29.60F WCI  28
FORT MADISON * LGT RAIN  43  43 100 W10       29.61R
KEOKUK *       LGT RAIN  43  43 100 W17G24    29.61R
OSKALOOSA *    CLOUDY    33  33  99 W12       29.62F WCI  24
OTTUMWA          N/A    N/A N/A N/A MISG      29.62S
WASHINGTON *   CLOUDY    37  37 100 W16       29.61S FOG     WCI  28
$$

ABBREVIATIONS USED IN REMARKS
   TC - TEMPERATURES IN CELSIUS
  WCI - WIND CHILL INDEX
   HX - HEAT INDEX
  VSB - VISIBILITY
$$




USA.gov is the U.S. government's official web portal to all federal, state and local government web resources and services.